User: anonymous   Login
Location: Stilling
(56.0622°N, 9.9882°E)
Time: 12:42:39
(UTC+00:00)
Language:

Cosmos 1943 - Orbit

View from above orbital plane
View from above orbital plane
View from above satellite
View from above satellite

Ground track
Ground track

The orbit data is extracted from the following two-line orbital elements,

1 19119U 88039A   20272.01325601  .00000120  00000-0  86444-4 0  9993
2 19119  71.0018 104.0674 0010583  23.8436  86.7366 14.15161636671694
Epoch (UTC): 28 September 2020 00:19:05
Eccentricity: 0.0010583
inclination: 71.0018°
perigee height: 834 km
apogee height: 849 km
right ascension of ascending node: 104.0674°
argument of perigee: 23.8436°
revolutions per day: 14.15161636
mean anomaly at epoch: 86.7366°
orbit number at epoch: 67169

The dashed part of the orbit path shows where the satellite is in the earth's shadow,  

DLR